ARG1874 SABE-SAWH

Flight info

Callsign ARG1874
Flight time N/A
Altitude 36000
Route PAL9 GBE UP664 DIL UT662 PUGLI/N0459F380 UT662 ASKAS UT704 DABLI DABLI1Q
Aircraft E190/M-SDE3GILORVW/S

Departure

Time 2026-05-04 11:13
Airport Aeroparque Jorge Newbery (SABE)

Arrival

Time N/A
Airport Ushuaia - Malvinas Argentinas International Airport (SAWH)
Time Latitude Longitude Altitude Speed Heading
2026-05-04 10:41 -34.55698 -58.41445 27 ft 0 kts 15°
2026-05-04 11:01 -34.55725 -58.41492 27 ft 2 kts 98°
2026-05-04 11:02 -34.55721 -58.41508 27 ft 0 kts 119°
2026-05-04 11:02 -34.55719 -58.41510 27 ft 0 kts 119°
2026-05-04 11:05 -34.55768 -58.41406 27 ft 7 kts 122°
2026-05-04 11:06 -34.55797 -58.41353 27 ft 8 kts 124°
2026-05-04 11:06 -34.55828 -58.41299 27 ft 6 kts 125°
2026-05-04 11:06 -34.55855 -58.41275 28 ft 3 kts 179°
2026-05-04 11:06 -34.55878 -58.41289 28 ft 3 kts 211°
2026-05-04 11:08 -34.56075 -58.41053 30 ft 8 kts 127°
2026-05-04 11:10 -34.56339 -58.40543 25 ft 11 kts 138°
2026-05-04 11:12 -34.56562 -58.40411 27 ft 2 kts 261°
2026-05-04 11:12 -34.56558 -58.40429 27 ft 0 kts 292°
2026-05-04 11:12 -34.56540 -58.40468 27 ft 23 kts 302°
2026-05-04 11:12 -34.56280 -58.40929 31 ft 105 kts 304°
2026-05-04 11:13 -34.55745 -58.41884 147 ft 156 kts 306°
2026-05-04 11:13 -34.55126 -58.42936 891 ft 162 kts 307°
2026-05-04 11:13 -34.54195 -58.43759 1613 ft 171 kts 339°
2026-05-04 11:13 -34.53019 -58.43942 2344 ft 176 kts 352°
2026-05-04 11:14 -34.51843 -58.44006 3277 ft 168 kts 353°
2026-05-04 11:14 -34.50651 -58.44031 3921 ft 175 kts 354°
2026-05-04 11:14 -34.49335 -58.44030 4226 ft 205 kts 360°
2026-05-04 11:16 -34.39146 -58.37791 8723 ft 287 kts 64°
2026-05-04 11:16 -34.38860 -58.35401 9325 ft 296 kts 100°
2026-05-04 11:16 -34.39677 -58.33194 10231 ft 286 kts 134°
2026-05-04 11:17 -34.41285 -58.31864 10932 ft 279 kts 162°
2026-05-04 11:17 -34.43147 -58.31235 11526 ft 279 kts 176°
2026-05-04 11:19 -34.53712 -58.36815 15561 ft 256 kts 241°
2026-05-04 11:19 -34.54612 -58.38777 15618 ft 276 kts 247°
2026-05-04 11:19 -34.55411 -58.40985 15678 ft 297 kts 250°
2026-05-04 11:19 -34.56163 -58.43386 15882 ft 311 kts 252°
2026-05-04 11:20 -34.56899 -58.45909 16173 ft 313 kts 252°
2026-05-04 11:20 -34.57603 -58.48420 16478 ft 314 kts 253°
2026-05-04 11:20 -34.58270 -58.50967 16719 ft 322 kts 255°
2026-05-04 11:20 -34.58944 -58.53557 17344 ft 322 kts 252°
2026-05-04 11:22 -34.73180 -58.54707 21218 ft 372 kts 178°
2026-05-04 11:22 -34.75771 -58.54280 21722 ft 371 kts 181°
2026-05-04 11:23 -34.78336 -58.53967 22221 ft 370 kts 183°
2026-05-04 11:23 -34.80915 -58.53692 22707 ft 371 kts 183°
2026-05-04 11:24 -34.96636 -58.52460 25362 ft 380 kts 185°
2026-05-04 11:25 -34.99301 -58.52259 25729 ft 384 kts 185°
2026-05-04 11:25 -35.01985 -58.52055 26158 ft 385 kts 185°
2026-05-04 11:25 -35.04651 -58.51853 26601 ft 385 kts 185°
2026-05-04 11:26 -35.09976 -58.51449 27597 ft 380 kts 185°
2026-05-04 11:27 -35.28775 -58.50630 29433 ft 406 kts 185°
2026-05-04 11:28 -35.31574 -58.50378 29740 ft 405 kts 185°
2026-05-04 11:28 -35.34360 -58.50129 30060 ft 405 kts 184°
2026-05-04 11:28 -35.37209 -58.49874 30387 ft 408 kts 185°
2026-05-04 11:28 -35.40040 -58.49622 30731 ft 411 kts 184°
2026-05-04 11:29 -35.42901 -58.49365 31191 ft 412 kts 185°
2026-05-04 11:29 -35.45770 -58.49108 31648 ft 411 kts 185°
2026-05-04 11:29 -35.48614 -58.48853 32175 ft 410 kts 185°
2026-05-04 11:29 -35.51461 -58.48597 32721 ft 408 kts 185°
2026-05-04 11:31 -35.71152 -58.46828 35525 ft 403 kts 186°
2026-05-04 11:33 -35.88333 -58.53205 36955 ft 334 kts 211°
2026-05-04 11:33 -35.90447 -58.54286 36713 ft 327 kts 211°
2026-05-04 11:33 -35.92593 -58.55388 36520 ft 340 kts 211°
2026-05-04 11:34 -35.97086 -58.57686 36545 ft 358 kts 210°
2026-05-04 11:34 -35.99424 -58.58881 36681 ft 364 kts 210°
2026-05-04 11:34 -36.01745 -58.60092 36787 ft 365 kts 211°
2026-05-04 11:35 -36.04056 -58.61379 36625 ft 359 kts 210°
2026-05-04 11:35 -36.06377 -58.62502 35996 ft 356 kts 210°
2026-05-04 11:35 -36.10965 -58.64803 35946 ft 365 kts 210°
2026-05-04 11:36 -36.15800 -58.67280 35959 ft 385 kts 210°
2026-05-04 11:36 -36.20824 -58.69858 35957 ft 387 kts 210°
2026-05-04 11:37 -36.23260 -58.71109 35926 ft 372 kts 211°
2026-05-04 11:37 -36.25681 -58.72361 35947 ft 381 kts 210°
2026-05-04 11:37 -36.30681 -58.74940 35948 ft 397 kts 210°
2026-05-04 11:38 -36.35808 -58.77586 35943 ft 397 kts 210°
2026-05-04 11:38 -36.40868 -58.80202 35942 ft 395 kts 210°
2026-05-04 11:39 -36.43376 -58.81497 35971 ft 377 kts 211°
2026-05-04 11:39 -36.45731 -58.82718 35934 ft 370 kts 211°
2026-05-04 11:40 -36.60305 -58.90284 36065 ft 355 kts 211°
2026-05-04 11:41 -36.62542 -58.91447 35936 ft 339 kts 212°
2026-05-04 11:41 -36.66869 -58.93709 36055 ft 340 kts 211°
2026-05-04 11:41 -36.69029 -58.94835 36226 ft 345 kts 211°
2026-05-04 11:42 -36.71246 -58.95992 36485 ft 348 kts 211°
2026-05-04 11:42 -36.73503 -58.97170 36868 ft 349 kts 211°
2026-05-04 11:42 -36.75725 -58.98331 37301 ft 348 kts 211°